Palma De Mallorca, Spain

9:57 PM CEST on September 25, 2016 (GMT +0200)
Palma De Mallorca

Weather History for LEPA - October, 2011

Change the Weather History Date:

Tuesday, October 11, 2011

  Actual Average Record
Temperature  
Mean Temperature 68 °F -  
Max Temperature 81 °F 74 °F 84 °F (1997)
Min Temperature 54 °F 56 °F 51 °F (1996)
Cooling Degree Days 2    
Growing Degree Days 18 (Base 50)    
Moisture  
Dew Point 61 °F    
Average Humidity 82    
Maximum Humidity 94    
Minimum Humidity 64    
Precipitation  
Precipitation 0.00 in - - ()
Sea Level Pressure  
Sea Level Pressure 30.21 in    
Wind  
Wind Speed 2 mph ()    
Max Wind Speed 13 mph    
Max Gust Speed -    
Visibility 9.4 miles    
Events      
Averages and records for this station are not official NWS values.
T = Trace of Precipitation, MM = Missing Value Source: Averaged Metar Reports

Daily Weather History Graph

Daily Weather History Graph

Search for Another Location

Airport or City:

Trip Planner

Search our weather history database for the weather conditions in past years. The results will help you decide how hot, cold, wet, or windy it might be!

Date:

Astronomy

Oct. 11, 2011 Rise Set
Actual Time 7:54 AM CEST 7:16 PM CEST
Civil Twilight 7:27 AM CEST 7:43 PM CEST
Nautical Twilight 6:56 AM CEST 8:14 PM CEST
Astronomical Twilight 6:25 AM CEST 8:45 PM CEST
Moon 6:41 PM CEST (10/11) 7:17 AM CEST (10/11)
Length of Visible Light 12h 16m
Length of Day
11h 22m
Full, 100% of the Moon is Illuminated
Oct 11
Full
Oct 12
Full
Oct 20
Last Quarter
Oct 26
New
Nov 2
First Quarter

Hourly Weather History & Observations

Time (CEST) Temp. Heat Index Dew Point Humidity Pressure Visibility Wind Dir Wind Speed Gust Speed Precip Events Conditions
12:00 AM 60.8 °F - 57.2 °F 88% 30.27 in - Variable 1.2 mph - N/A   Clear
12:30 AM 60.8 °F - 57.2 °F 88% 30.27 in - NNE 1.2 mph - N/A   Clear
1:00 AM 60.8 °F - 57.2 °F 88% 30.24 in - Calm Calm - N/A   Clear
1:30 AM 59.0 °F - 53.6 °F 82% 30.24 in - Calm Calm - N/A   Clear
2:00 AM 58 °F - 54 °F 80% 30.26 in 9 mi Calm Calm - -  
2:00 AM 59.0 °F - 53.6 °F 82% 30.24 in - Calm Calm - N/A   Clear
2:30 AM 57.2 °F - 51.8 °F 82% 30.24 in - NNE 1.2 mph - N/A   Clear
3:00 AM 57.2 °F - 53.6 °F 88% 30.24 in - Calm Calm - N/A   Clear
3:30 AM 59.0 °F - 53.6 °F 82% 30.24 in - NE 1.2 mph - N/A   Clear
4:00 AM 57.2 °F - 51.8 °F 82% 30.24 in - Variable 2.3 mph - N/A   Clear
4:30 AM 57.2 °F - 53.6 °F 88% 30.21 in - Calm Calm - N/A   Clear
5:00 AM 57.2 °F - 53.6 °F 88% 30.21 in - Calm Calm - N/A   Clear
5:30 AM 57.2 °F - 53.6 °F 88% 30.21 in - Calm Calm - N/A   Clear
6:00 AM 55.4 °F - 53.6 °F 94% 30.21 in - NE 1.2 mph - N/A   Clear
6:30 AM 55.4 °F - 53.6 °F 94% 30.21 in - Calm Calm - N/A   Clear
7:00 AM 55.4 °F - 53.6 °F 94% 30.21 in - North 1.2 mph - N/A   Clear
7:30 AM 55.4 °F - 53.6 °F 94% 30.21 in - North 1.2 mph - N/A   Clear
8:00 AM 55 °F - 53 °F 92% 30.22 in 19 mi Calm Calm - -  
8:00 AM 55.4 °F - 53.6 °F 94% 30.21 in - Calm Calm - N/A   Clear
8:30 AM 55.4 °F - 53.6 °F 94% 30.21 in - Calm Calm - N/A   Clear
9:00 AM 59.0 °F - 57.2 °F 94% 30.21 in 6.2 mi Calm Calm - N/A   Partly Cloudy
9:30 AM 64.4 °F - 60.8 °F 88% 30.24 in 6.2 mi Calm Calm - N/A   Partly Cloudy
10:00 AM 69.8 °F - 64.4 °F 83% 30.24 in - Calm Calm - N/A   Clear
10:30 AM 75.2 °F - 62.6 °F 65% 30.24 in - Calm Calm - N/A   Clear
11:00 AM 75.2 °F - 62.6 °F 65% 30.24 in - Variable 1.2 mph - N/A   Clear
11:30 AM 77.0 °F - 64.4 °F 65% 30.24 in - South 3.5 mph - N/A   Clear
12:00 PM 77.0 °F - 66.2 °F 69% 30.24 in - SSW 6.9 mph - N/A   Clear
2:00 PM 80 °F - 70 °F 64% 30.22 in 19 mi SW 12.7 mph - -   Scattered Clouds
3:00 PM 80.6 °F 83.9 °F 69.8 °F 70% 30.21 in 6.2 mi SW 8.1 mph - N/A   Partly Cloudy
3:30 PM 80.6 °F 83.2 °F 68.0 °F 65% 30.18 in 6.2 mi SSW 11.5 mph - N/A   Partly Cloudy
4:00 PM 80.6 °F 83.9 °F 69.8 °F 70% 30.18 in 6.2 mi SSW 10.4 mph - N/A   Partly Cloudy
4:30 PM 80.6 °F 83.2 °F 68.0 °F 65% 30.18 in 6.2 mi SSW 8.1 mph - N/A   Partly Cloudy
5:00 PM 78.8 °F - 69.8 °F 74% 30.18 in 6.2 mi SSW 9.2 mph - N/A   Partly Cloudy
5:30 PM 78.8 °F - 69.8 °F 74% 30.15 in 6.2 mi SSW 11.5 mph - N/A   Partly Cloudy
6:00 PM 77.0 °F - 69.8 °F 78% 30.15 in - SSW 12.7 mph - N/A   Clear
6:30 PM 77.0 °F - 69.8 °F 78% 30.15 in - SSW 10.4 mph - N/A   Clear
7:00 PM 77.0 °F - 69.8 °F 78% 30.15 in - South 6.9 mph - N/A   Clear
7:30 PM 75.2 °F - 68.0 °F 78% 30.18 in - South 3.5 mph - N/A   Clear
8:00 PM 74 °F - 67 °F 72% 30.18 in 16 mi SSE 4.6 mph - -  
8:00 PM 75.2 °F - 66.2 °F 73% 30.18 in - SE 3.5 mph - N/A   Clear
8:30 PM 71.6 °F - 66.2 °F 83% 30.18 in - SE 5.8 mph - N/A   Clear
9:00 PM 71.6 °F - 66.2 °F 83% 30.18 in - Variable 2.3 mph - N/A   Clear
9:30 PM 69.8 °F - 66.2 °F 88% 30.18 in - SE 4.6 mph - N/A   Clear
10:00 PM 68.0 °F - 64.4 °F 88% 30.18 in - ENE 2.3 mph - N/A   Clear
10:30 PM 68.0 °F - 64.4 °F 88% 30.18 in - NNW 1.2 mph - N/A   Clear
11:00 PM 68.0 °F - 64.4 °F 88% 30.18 in - Calm Calm - N/A   Clear
11:30 PM 66.2 °F - 62.6 °F 88% 30.18 in - Calm Calm - N/A   Clear